This demonstration page uses our WeatherBlox Daily Observations layout. Learn more.

38.88101, -77.10428

Hourly Observations for November 22, 2020

Temp ( °F °C ) Dew Point ( °F °C ) Humidity (%) Winds ( mph kmh ) Pressure ( in mb ) Visibility ( mi km ) Precip ( " mm )
12:52 am 00:52 Cloudy 53 11.7 41 5 64 64 NE 7 11 30.39 1029 10 16.0934 0 0
1:52 am 01:52 Cloudy 55 12.8 40 4.4 57 57 NE 3 6 30.39 1029 10 16.0934 0 0
2:52 am 02:52 Cloudy 54 12.2 43 6.1 67 67 NE 6 9 30.39 1029 10 16.0934 0 0
3:52 am 03:52 Cloudy 54 12.2 43 6.1 67 67 ENE 9 15 30.38 1029 10 16.0934 0 0
4:52 am 04:52 Cloudy 53 11.7 43 6.1 69 69 NE 10 17 30.38 1029 10 16.0934 0 0
5:52 am 05:52 Cloudy 52 11.1 40 4.4 64 64 ENE 9 15 30.38 1029 10 16.0934 0 0
6:52 am 06:52 Cloudy 52 11.1 40 4.4 64 64 NE 9 15 30.38 1029 10 16.0934 0 0
7:52 am 07:52 Cloudy 51 10.6 41 5 69 69 NE 8 13 30.39 1029 10 16.0934 0 0
8:52 am 08:52 Cloudy 52 11.1 40 4.4 64 64 NE 7 11 30.39 1029 10 16.0934 0 0
9:52 am 09:52 Mostly Cloudy 54 12.2 42 5.6 64 64 E 7 11 30.39 1029 10 16.0934 0 0
10:52 am 10:52 Cloudy 55 12.8 44 6.7 67 67 E 9 15 30.36 1028 10 16.0934 0 0
11:52 am 11:52 Mostly Cloudy 57 13.9 46 7.8 67 67 E 9 15 30.32 1027 10 16.0934 0 0
12:52 pm 12:52 Cloudy 57 13.9 46 7.8 67 67 E 9 15 30.28 1025 10 16.0934 0 0
1:52 pm 13:52 Cloudy 58 14.4 47 8.3 67 67 E 12 19 30.24 1024 10 16.0934 0 0
2:52 pm 14:52 Cloudy 58 14.4 49 9.4 72 72 E 9 15 30.21 1023 10 16.0934 0 0
3:15 pm 15:15 Cloudy 57 13.9 49 9.4 74 74 E 8 13 30.2 1023 10 16.0934 0 0
3:20 pm 15:20 Cloudy 57 13.9 49 9.4 74 74 E 10 17 30.19 1022 10 16.0934 0 0
3:52 pm 15:52 Cloudy 58 14.4 49 9.4 72 72 E 9 15 30.19 1022 10 16.0934 0 0
4:43 pm 16:43 Cloudy 56 13.3 48 8.9 75 75 NE 8 13 30.18 1022 10 16.0934 0 0
4:52 pm 16:52 Cloudy 56 13.3 48 8.9 75 75 NE 9 15 30.17 1022 10 16.0934 0 0
5:09 pm 17:09 Cloudy 55 12.8 48 8.9 77 77 ENE 6 9 30.17 1022 10 16.0934 0 0
5:52 pm 17:52 Mostly Cloudy 54 12.2 47 8.3 77 77 NE 6 9 30.16 1021 10 16.0934 0 0
6:42 pm 18:42 Cloudy 56 13.3 48 8.9 75 75 WNW 8 13 30.16 1021 10 16.0934 0 0
6:52 pm 18:52 Cloudy 56 13.3 48 8.9 75 75 NE 8 13 30.15 1021 10 16.0934 0 0
7:52 pm 19:52 Cloudy 54 12.2 48 8.9 80 80 ENE 5 7 30.12 1020 10 16.0934 0 0
8:34 pm 20:34 Cloudy 56 13.3 48 8.9 75 75 Calm 30.11 1020 10 16.0934 0 0
8:40 pm 20:40 Cloudy 55 12.8 48 8.9 77 77 NNW 3 6 30.11 1020 10 16.0934 0 0
8:52 pm 20:52 Cloudy 56 13.3 49 9.4 77 77 Calm 30.1 1019 10 16.0934 0 0
9:01 pm 21:01 Cloudy 56 13.3 49 9.4 77 77 Calm 30.1 1019 10 16.0934 0 0
9:52 pm 21:52 Cloudy 57 13.9 50 10 78 78 Calm 30.08 1019 10 16.0934 0 0
10:52 pm 22:52 Mostly Cloudy 54 12.2 50 10 87 87 SSE 8 13 30.04 1017 10 16.0934 0 0
11:52 pm 23:52 Cloudy 56 13.3 54 12.2 93 93 S 10 17 30.02 1017 10 16.0934 0 0

Powered by AerisWeather